Year,Month,Day,Hour,Minute,Value (Times are PST for temperature in C)
2018,05,21,00,00,11.50
2018,05,21,00,01,11.40
2018,05,21,00,02,11.40
2018,05,21,00,03,11.40
2018,05,21,00,04,11.40
2018,05,21,00,05,11.30
2018,05,21,00,06,11.30
2018,05,21,00,07,11.30
2018,05,21,00,08,11.30
2018,05,21,00,09,11.20
2018,05,21,00,10,11.20
2018,05,21,00,11,11.20
2018,05,21,00,12,11.20
2018,05,21,00,13,11.20
2018,05,21,00,14,11.20
2018,05,21,00,15,11.20
2018,05,21,00,16,11.10
2018,05,21,00,17,11.10
2018,05,21,00,18,11.10
2018,05,21,00,19,11.10
2018,05,21,00,20,11.10
2018,05,21,00,21,11.00
2018,05,21,00,22,11.00
2018,05,21,00,23,11.00
2018,05,21,00,24,11.00
2018,05,21,00,25,10.90
2018,05,21,00,26,10.90
2018,05,21,00,27,10.90
2018,05,21,00,28,10.90
2018,05,21,00,29,10.90
2018,05,21,00,30,10.80
2018,05,21,00,31,10.80
2018,05,21,00,32,10.80
2018,05,21,00,33,10.80
2018,05,21,00,34,10.80
2018,05,21,00,35,10.80
2018,05,21,00,36,10.80
2018,05,21,00,37,10.80
2018,05,21,00,38,10.80
2018,05,21,00,39,10.80
2018,05,21,00,40,10.70
2018,05,21,00,41,10.70
2018,05,21,00,42,10.70
2018,05,21,00,43,10.70
2018,05,21,00,44,10.70
2018,05,21,00,45,10.70
2018,05,21,00,46,10.70
2018,05,21,00,47,10.70
2018,05,21,00,48,10.70
2018,05,21,00,49,10.60
2018,05,21,00,50,10.60
2018,05,21,00,51,10.60
2018,05,21,00,52,10.60
2018,05,21,00,53,10.60
2018,05,21,00,54,10.60
2018,05,21,00,55,10.60
2018,05,21,00,56,10.50
2018,05,21,00,57,10.50
2018,05,21,00,58,10.50
2018,05,21,00,59,10.50
2018,05,21,01,00,10.50
2018,05,21,01,01,10.50
2018,05,21,01,02,10.50
2018,05,21,01,03,10.50
2018,05,21,01,04,10.50
2018,05,21,01,05,10.50
2018,05,21,01,06,10.40
2018,05,21,01,07,10.40
2018,05,21,01,08,10.40
2018,05,21,01,09,10.40
2018,05,21,01,10,10.40
2018,05,21,01,11,10.40
2018,05,21,01,12,10.40
2018,05,21,01,13,10.40
2018,05,21,01,14,10.40
2018,05,21,01,15,10.40
2018,05,21,01,16,10.40
2018,05,21,01,17,10.40
2018,05,21,01,18,10.40
2018,05,21,01,19,10.40
2018,05,21,01,20,10.40
2018,05,21,01,21,10.40
2018,05,21,01,22,10.40
2018,05,21,01,23,10.40
2018,05,21,01,24,10.40
2018,05,21,01,25,10.40
2018,05,21,01,26,10.40
2018,05,21,01,27,10.30
2018,05,21,01,28,10.30
2018,05,21,01,29,10.30
2018,05,21,01,30,10.30
2018,05,21,01,31,10.30
2018,05,21,01,32,10.30
2018,05,21,01,33,10.40
2018,05,21,01,34,10.30
2018,05,21,01,35,10.30
2018,05,21,01,36,10.30
2018,05,21,01,37,10.30
2018,05,21,01,38,10.30
2018,05,21,01,39,10.30
2018,05,21,01,40,10.30
2018,05,21,01,41,10.30
2018,05,21,01,42,10.20
2018,05,21,01,43,10.20
2018,05,21,01,44,10.20
2018,05,21,01,45,10.20
2018,05,21,01,46,10.20
2018,05,21,01,47,10.20
2018,05,21,01,48,10.20
2018,05,21,01,49,10.20
2018,05,21,01,50,10.20
2018,05,21,01,51,10.20
2018,05,21,01,52,10.10
2018,05,21,01,53,10.10
2018,05,21,01,54,10.10
2018,05,21,01,55,10.10
2018,05,21,01,56,10.10
2018,05,21,01,57,10.10
2018,05,21,01,58,10.00
2018,05,21,01,59,10.00
2018,05,21,02,00,10.00
2018,05,21,02,01,10.00
2018,05,21,02,02,9.90
2018,05,21,02,03,9.90
2018,05,21,02,04,9.90
2018,05,21,02,05,9.90
2018,05,21,02,06,9.90
2018,05,21,02,07,9.90
2018,05,21,02,08,9.90
2018,05,21,02,09,9.90
2018,05,21,02,10,9.90
2018,05,21,02,11,9.90
2018,05,21,02,12,9.90
2018,05,21,02,13,9.90
2018,05,21,02,14,9.90
2018,05,21,02,15,9.90
2018,05,21,02,16,9.90
2018,05,21,02,17,9.90
2018,05,21,02,18,9.80
2018,05,21,02,19,9.80
2018,05,21,02,20,9.80
2018,05,21,02,21,9.80
2018,05,21,02,22,9.80
2018,05,21,02,23,9.70
2018,05,21,02,24,9.70
2018,05,21,02,25,9.70
2018,05,21,02,26,9.70
2018,05,21,02,27,9.60
2018,05,21,02,28,9.60
2018,05,21,02,29,9.60
2018,05,21,02,30,9.60
2018,05,21,02,31,9.60
2018,05,21,02,32,9.50
2018,05,21,02,33,9.50
2018,05,21,02,34,9.50
2018,05,21,02,35,9.50
2018,05,21,02,36,9.40
2018,05,21,02,37,9.40
2018,05,21,02,38,9.40
2018,05,21,02,39,9.40
2018,05,21,02,40,9.40
2018,05,21,02,41,9.40
2018,05,21,02,42,9.40
2018,05,21,02,43,9.30
2018,05,21,02,44,9.30
2018,05,21,02,45,9.30
2018,05,21,02,46,9.30
2018,05,21,02,47,9.30
2018,05,21,02,48,9.30
2018,05,21,02,49,9.30
2018,05,21,02,50,9.30
2018,05,21,02,51,9.30
2018,05,21,02,52,9.30
2018,05,21,02,53,9.30
2018,05,21,02,54,9.30
2018,05,21,02,55,9.30
2018,05,21,02,56,9.30
2018,05,21,02,57,9.30
2018,05,21,02,58,9.30
2018,05,21,02,59,9.30
2018,05,21,03,00,9.30
2018,05,21,03,01,9.30
2018,05,21,03,02,9.20
2018,05,21,03,03,9.20
2018,05,21,03,04,9.20
2018,05,21,03,05,9.20
2018,05,21,03,06,9.20
2018,05,21,03,07,9.20
2018,05,21,03,08,9.20
2018,05,21,03,09,9.20
2018,05,21,03,10,9.20
2018,05,21,03,11,9.20
2018,05,21,03,12,9.10
2018,05,21,03,13,9.10
2018,05,21,03,14,9.10
2018,05,21,03,15,9.10
2018,05,21,03,16,9.10
2018,05,21,03,17,9.10
2018,05,21,03,18,9.10
2018,05,21,03,19,9.10
2018,05,21,03,20,9.10
2018,05,21,03,21,9.00
2018,05,21,03,22,9.00
2018,05,21,03,23,9.00
2018,05,21,03,24,9.00
2018,05,21,03,25,9.00
2018,05,21,03,26,9.00
2018,05,21,03,27,9.00
2018,05,21,03,28,9.00
2018,05,21,03,29,9.00
2018,05,21,03,30,9.00
2018,05,21,03,31,9.00
2018,05,21,03,32,9.00
2018,05,21,03,33,9.00
2018,05,21,03,34,8.90
2018,05,21,03,35,8.90
2018,05,21,03,36,8.90
2018,05,21,03,37,8.90
2018,05,21,03,38,8.90
2018,05,21,03,39,8.90
2018,05,21,03,40,9.00
2018,05,21,03,41,9.00
2018,05,21,03,42,8.90
2018,05,21,03,43,8.90
2018,05,21,03,44,8.90
2018,05,21,03,45,8.90
2018,05,21,03,46,8.90
2018,05,21,03,47,8.90
2018,05,21,03,48,8.90
2018,05,21,03,49,8.90
2018,05,21,03,50,8.90
2018,05,21,03,51,8.90
2018,05,21,03,52,8.90
2018,05,21,03,53,8.90
2018,05,21,03,54,8.90
2018,05,21,03,55,8.90
2018,05,21,03,56,8.80
2018,05,21,03,57,8.80
2018,05,21,03,58,8.80
2018,05,21,03,59,8.80
2018,05,21,04,00,8.80
2018,05,21,04,01,8.70
2018,05,21,04,02,8.70
2018,05,21,04,03,8.70
2018,05,21,04,04,8.70
2018,05,21,04,05,8.70
2018,05,21,04,06,8.70
2018,05,21,04,07,8.70
2018,05,21,04,08,8.70
2018,05,21,04,09,8.70
2018,05,21,04,10,8.80
2018,05,21,04,11,8.80
2018,05,21,04,12,8.80
2018,05,21,04,13,8.80
2018,05,21,04,14,8.80
2018,05,21,04,15,8.80
2018,05,21,04,16,8.80
2018,05,21,04,17,8.80
2018,05,21,04,18,8.70
2018,05,21,04,19,8.70
2018,05,21,04,20,8.70
2018,05,21,04,21,8.70
2018,05,21,04,22,8.70
2018,05,21,04,23,8.70
2018,05,21,04,24,8.70
2018,05,21,04,25,8.70
2018,05,21,04,26,8.60
2018,05,21,04,27,8.60
2018,05,21,04,28,8.60
2018,05,21,04,29,8.60
2018,05,21,04,30,8.60
2018,05,21,04,31,8.60
2018,05,21,04,32,8.60
2018,05,21,04,33,8.70
2018,05,21,04,34,8.70
2018,05,21,04,35,8.70
2018,05,21,04,36,8.70
2018,05,21,04,37,8.70
2018,05,21,04,38,8.70
2018,05,21,04,39,8.70
2018,05,21,04,40,8.70
2018,05,21,04,41,8.70
2018,05,21,04,42,8.70
2018,05,21,04,43,8.70
2018,05,21,04,44,8.70
2018,05,21,04,45,8.70
2018,05,21,04,46,8.70
2018,05,21,04,47,8.70
2018,05,21,04,48,8.70
2018,05,21,04,49,8.70
2018,05,21,04,50,8.80
2018,05,21,04,51,8.80
2018,05,21,04,52,8.80
2018,05,21,04,53,8.70
2018,05,21,04,54,8.70
2018,05,21,04,55,8.70
2018,05,21,04,56,8.70
2018,05,21,04,57,8.70
2018,05,21,04,58,8.70
2018,05,21,04,59,8.60
2018,05,21,05,00,8.60
2018,05,21,05,01,8.60
2018,05,21,05,02,8.60
2018,05,21,05,03,8.60
2018,05,21,05,04,8.60
2018,05,21,05,05,8.50
2018,05,21,05,06,8.50
2018,05,21,05,07,8.50
2018,05,21,05,08,8.50
2018,05,21,05,09,8.50
2018,05,21,05,10,8.40
2018,05,21,05,11,8.40
2018,05,21,05,12,8.40
2018,05,21,05,13,8.40
2018,05,21,05,14,8.40
2018,05,21,05,15,8.40
2018,05,21,05,16,8.40
2018,05,21,05,17,8.40
2018,05,21,05,18,8.40
2018,05,21,05,19,8.40
2018,05,21,05,20,8.40
2018,05,21,05,21,8.40
2018,05,21,05,22,8.40
2018,05,21,05,23,8.40
2018,05,21,05,24,8.40
2018,05,21,05,25,8.40
2018,05,21,05,26,8.30
2018,05,21,05,27,8.30
2018,05,21,05,28,8.30
2018,05,21,05,29,8.30
2018,05,21,05,30,8.30
2018,05,21,05,31,8.30
2018,05,21,05,32,8.30
2018,05,21,05,33,8.30
2018,05,21,05,34,8.30
2018,05,21,05,35,8.30
2018,05,21,05,36,8.30
2018,05,21,05,37,8.30
2018,05,21,05,38,8.30
2018,05,21,05,39,8.30
2018,05,21,05,40,8.20
2018,05,21,05,41,8.20
2018,05,21,05,42,8.20
2018,05,21,05,43,8.20
2018,05,21,05,44,8.20
2018,05,21,05,45,8.20
2018,05,21,05,46,8.10
2018,05,21,05,47,8.10
2018,05,21,05,48,8.10
2018,05,21,05,49,8.10
2018,05,21,05,50,8.10
2018,05,21,05,51,8.10
2018,05,21,05,52,8.10
2018,05,21,05,53,8.10
2018,05,21,05,54,8.10
2018,05,21,05,55,8.10
2018,05,21,05,56,8.10
2018,05,21,05,57,8.10
2018,05,21,05,58,8.10
2018,05,21,05,59,8.10
2018,05,21,06,00,8.10
2018,05,21,06,01,8.10
2018,05,21,06,02,8.10
2018,05,21,06,03,8.10
2018,05,21,06,04,8.10
2018,05,21,06,05,8.20
2018,05,21,06,06,8.20
2018,05,21,06,07,8.20
2018,05,21,06,08,8.20
2018,05,21,06,09,8.20
2018,05,21,06,10,8.30
2018,05,21,06,11,8.30
2018,05,21,06,12,8.30
2018,05,21,06,13,8.30
2018,05,21,06,14,8.40
2018,05,21,06,15,8.40
2018,05,21,06,16,8.50
2018,05,21,06,17,8.50
2018,05,21,06,18,8.50
2018,05,21,06,19,8.60
2018,05,21,06,20,8.60
2018,05,21,06,21,8.70
2018,05,21,06,22,8.70
2018,05,21,06,23,8.80
2018,05,21,06,24,8.80
2018,05,21,06,25,8.80
2018,05,21,06,26,8.90
2018,05,21,06,27,9.00
2018,05,21,06,28,9.00
2018,05,21,06,29,9.10
2018,05,21,06,30,9.10
2018,05,21,06,31,9.20
2018,05,21,06,32,9.20
2018,05,21,06,33,9.20
2018,05,21,06,34,9.30
2018,05,21,06,35,9.30
2018,05,21,06,36,9.30
2018,05,21,06,37,9.30
2018,05,21,06,38,9.40
2018,05,21,06,39,9.40
2018,05,21,06,40,9.40
2018,05,21,06,41,9.40
2018,05,21,06,42,9.50
2018,05,21,06,43,9.50
2018,05,21,06,44,9.50
2018,05,21,06,45,9.60
2018,05,21,06,46,9.60
2018,05,21,06,47,9.60
2018,05,21,06,48,9.70
2018,05,21,06,49,9.70
2018,05,21,06,50,9.70
2018,05,21,06,51,9.70
2018,05,21,06,52,9.70
2018,05,21,06,53,9.70
2018,05,21,06,54,9.80
2018,05,21,06,55,9.80
2018,05,21,06,56,9.80
2018,05,21,06,57,9.90
2018,05,21,06,58,9.90
2018,05,21,06,59,10.00
2018,05,21,07,00,10.00
2018,05,21,07,01,10.10
2018,05,21,07,02,10.10
2018,05,21,07,03,10.10
2018,05,21,07,04,10.10
2018,05,21,07,05,10.20
2018,05,21,07,06,10.20
2018,05,21,07,07,10.20
2018,05,21,07,08,10.20
2018,05,21,07,09,10.30
2018,05,21,07,10,10.30
2018,05,21,07,11,10.30
2018,05,21,07,12,10.30
2018,05,21,07,13,10.30
2018,05,21,07,14,10.40
2018,05,21,07,15,10.50
2018,05,21,07,16,10.60
2018,05,21,07,17,10.60
2018,05,21,07,18,10.70
2018,05,21,07,19,10.80
2018,05,21,07,20,10.90
2018,05,21,07,21,11.00
2018,05,21,07,22,11.10
2018,05,21,07,23,11.20
2018,05,21,07,24,11.30
2018,05,21,07,25,11.40
2018,05,21,07,26,11.50
2018,05,21,07,27,11.60
2018,05,21,07,28,11.70
2018,05,21,07,29,11.80
2018,05,21,07,30,11.80
2018,05,21,07,31,11.90
2018,05,21,07,32,12.00
2018,05,21,07,33,12.00
2018,05,21,07,34,12.10
2018,05,21,07,35,12.10
2018,05,21,07,36,12.20
2018,05,21,07,37,12.20
2018,05,21,07,38,12.30
2018,05,21,07,39,12.30
2018,05,21,07,40,12.40
2018,05,21,07,41,12.40
2018,05,21,07,42,12.40
2018,05,21,07,43,12.50
2018,05,21,07,44,12.50
2018,05,21,07,45,12.60
2018,05,21,07,46,12.60
2018,05,21,07,47,12.70
2018,05,21,07,48,12.80
2018,05,21,07,49,12.80
2018,05,21,07,50,12.90
2018,05,21,07,51,12.90
2018,05,21,07,52,12.90
2018,05,21,07,53,13.00
2018,05,21,07,54,13.10
2018,05,21,07,55,13.10
2018,05,21,07,56,13.20
2018,05,21,07,57,13.30
2018,05,21,07,58,13.40
2018,05,21,07,59,13.50
2018,05,21,08,00,13.60
2018,05,21,08,01,13.60
2018,05,21,08,02,13.70
2018,05,21,08,03,13.70
2018,05,21,08,04,13.70
2018,05,21,08,05,13.80
2018,05,21,08,06,13.80
2018,05,21,08,07,13.80
2018,05,21,08,08,13.80
2018,05,21,08,09,13.80
2018,05,21,08,10,13.70
2018,05,21,08,11,13.70
2018,05,21,08,12,13.80
2018,05,21,08,13,13.80
2018,05,21,08,14,13.80
2018,05,21,08,15,13.90
2018,05,21,08,16,14.00
2018,05,21,08,17,14.00
2018,05,21,08,18,14.10
2018,05,21,08,19,14.10
2018,05,21,08,20,14.10
2018,05,21,08,21,14.10
2018,05,21,08,22,14.20
2018,05,21,08,23,14.20
2018,05,21,08,24,14.20
2018,05,21,08,25,14.20
2018,05,21,08,26,14.20
2018,05,21,08,27,14.20
2018,05,21,08,28,14.20
2018,05,21,08,29,14.20
2018,05,21,08,30,14.30
2018,05,21,08,31,14.30
2018,05,21,08,32,14.30
2018,05,21,08,33,14.30
2018,05,21,08,34,14.30
2018,05,21,08,35,14.30
2018,05,21,08,36,14.30
2018,05,21,08,37,14.40
2018,05,21,08,38,14.40
2018,05,21,08,39,14.40
2018,05,21,08,40,14.40
2018,05,21,08,41,14.40
2018,05,21,08,42,14.40
2018,05,21,08,43,14.40
2018,05,21,08,44,14.40
2018,05,21,08,45,14.40
2018,05,21,08,46,14.40
2018,05,21,08,47,14.50
2018,05,21,08,48,14.50
2018,05,21,08,49,14.60
2018,05,21,08,50,14.60
2018,05,21,08,51,14.60
2018,05,21,08,52,14.60
2018,05,21,08,53,14.70
2018,05,21,08,54,14.70
2018,05,21,08,55,14.70
2018,05,21,08,56,14.60
2018,05,21,08,57,14.70
2018,05,21,08,58,14.70
2018,05,21,08,59,14.80
2018,05,21,09,00,14.80
2018,05,21,09,01,14.90
2018,05,21,09,02,14.80
2018,05,21,09,03,14.70
2018,05,21,09,04,14.70
2018,05,21,09,05,14.60
2018,05,21,09,06,14.60
2018,05,21,09,07,14.60
2018,05,21,09,08,14.60
2018,05,21,09,09,14.60
2018,05,21,09,10,14.50
2018,05,21,09,11,14.50
2018,05,21,09,12,14.40
2018,05,21,09,13,14.40
2018,05,21,09,14,14.50
2018,05,21,09,15,14.50
2018,05,21,09,16,14.40
2018,05,21,09,17,14.40
2018,05,21,09,18,14.30
2018,05,21,09,19,14.20
2018,05,21,09,20,14.20
2018,05,21,09,21,14.10
2018,05,21,09,22,14.10
2018,05,21,09,23,14.10
2018,05,21,09,24,14.10
2018,05,21,09,25,14.10
2018,05,21,09,26,14.10
2018,05,21,09,27,14.10
2018,05,21,09,28,14.10
2018,05,21,09,29,14.10
2018,05,21,09,30,14.10
2018,05,21,09,31,14.10
2018,05,21,09,32,14.10
2018,05,21,09,33,14.10
2018,05,21,09,34,14.10
2018,05,21,09,35,14.10
2018,05,21,09,36,14.20
2018,05,21,09,37,14.20
2018,05,21,09,38,14.20
2018,05,21,09,39,14.20
2018,05,21,09,40,14.20
2018,05,21,09,41,14.20
2018,05,21,09,42,14.20
2018,05,21,09,43,14.20
2018,05,21,09,44,14.20
2018,05,21,09,45,14.20
2018,05,21,09,46,14.20
2018,05,21,09,47,14.20
2018,05,21,09,48,14.30
2018,05,21,09,49,14.30
2018,05,21,09,50,14.30
2018,05,21,09,51,14.20
2018,05,21,09,52,14.30
2018,05,21,09,53,14.30
2018,05,21,09,54,14.20
2018,05,21,09,55,14.30
2018,05,21,09,56,14.30
2018,05,21,09,57,14.30
2018,05,21,09,58,14.30
2018,05,21,09,59,14.40
2018,05,21,10,00,14.40
2018,05,21,10,01,14.40
2018,05,21,10,02,14.40
2018,05,21,10,03,14.40
2018,05,21,10,04,14.40
2018,05,21,10,05,14.40
2018,05,21,10,06,14.40
2018,05,21,10,07,14.40
2018,05,21,10,08,14.40
2018,05,21,10,09,14.40
2018,05,21,10,10,14.40
2018,05,21,10,11,14.40
2018,05,21,10,12,14.40
2018,05,21,10,13,14.40
2018,05,21,10,14,14.40
2018,05,21,10,15,14.40
2018,05,21,10,16,14.40
2018,05,21,10,17,14.40
2018,05,21,10,18,14.40
2018,05,21,10,19,14.40
2018,05,21,10,20,14.40
2018,05,21,10,21,14.40
2018,05,21,10,22,14.40
2018,05,21,10,23,14.40
2018,05,21,10,24,14.30
2018,05,21,10,25,14.30
2018,05,21,10,26,14.30
2018,05,21,10,27,14.30
2018,05,21,10,28,14.30
2018,05,21,10,29,14.40
2018,05,21,10,30,14.40
2018,05,21,10,31,14.40
2018,05,21,10,32,14.50
2018,05,21,10,33,14.50
2018,05,21,10,34,14.60
2018,05,21,10,35,14.70
2018,05,21,10,36,14.70
2018,05,21,10,37,14.80
2018,05,21,10,38,14.80
2018,05,21,10,39,14.90
2018,05,21,10,40,14.90
2018,05,21,10,41,15.00
2018,05,21,10,42,15.00
2018,05,21,10,43,15.00
2018,05,21,10,44,15.00
2018,05,21,10,45,15.00
2018,05,21,10,46,15.00
2018,05,21,10,47,15.00
2018,05,21,10,48,15.10
2018,05,21,10,49,15.10
2018,05,21,10,50,15.20
2018,05,21,10,51,15.30
2018,05,21,10,52,15.30
2018,05,21,10,53,15.40
2018,05,21,10,54,15.40
2018,05,21,10,55,15.50
2018,05,21,10,56,15.60
2018,05,21,10,57,15.60
2018,05,21,10,58,15.70
2018,05,21,10,59,15.70
2018,05,21,11,00,15.80
2018,05,21,11,01,15.90
2018,05,21,11,02,16.00
2018,05,21,11,03,16.10
2018,05,21,11,04,16.10
2018,05,21,11,05,16.20
2018,05,21,11,06,16.10
2018,05,21,11,07,16.10
2018,05,21,11,08,16.00
2018,05,21,11,09,15.90
2018,05,21,11,10,15.80
2018,05,21,11,11,15.80
2018,05,21,11,12,15.80
2018,05,21,11,13,15.80
2018,05,21,11,14,15.80
2018,05,21,11,15,15.90
2018,05,21,11,16,15.90
2018,05,21,11,17,16.00
2018,05,21,11,18,16.10
2018,05,21,11,19,16.20
2018,05,21,11,20,16.20
2018,05,21,11,21,16.20
2018,05,21,11,22,16.20
2018,05,21,11,23,16.20
2018,05,21,11,24,16.20
2018,05,21,11,25,16.20
2018,05,21,11,26,16.20
2018,05,21,11,27,16.20
2018,05,21,11,28,16.10
2018,05,21,11,29,16.10
2018,05,21,11,30,16.10
2018,05,21,11,31,16.10
2018,05,21,11,32,16.10
2018,05,21,11,33,16.10
2018,05,21,11,34,16.20
2018,05,21,11,35,16.20
2018,05,21,11,36,16.30
2018,05,21,11,37,16.30
2018,05,21,11,38,16.40
2018,05,21,11,39,16.40
2018,05,21,11,40,16.40
2018,05,21,11,41,16.50
2018,05,21,11,42,16.50
2018,05,21,11,43,16.60
2018,05,21,11,44,16.60
2018,05,21,11,45,16.60
2018,05,21,11,46,16.60
2018,05,21,11,47,16.60
2018,05,21,11,48,16.60
2018,05,21,11,49,16.60
2018,05,21,11,50,16.60
2018,05,21,11,51,16.60
2018,05,21,11,52,16.60
2018,05,21,11,53,16.60
2018,05,21,11,54,16.60
2018,05,21,11,55,16.60
2018,05,21,11,56,16.60
2018,05,21,11,57,16.60
2018,05,21,11,58,16.70
2018,05,21,11,59,16.70
2018,05,21,12,00,16.80
2018,05,21,12,01,16.90
2018,05,21,12,02,17.00
2018,05,21,12,03,17.00
2018,05,21,12,04,17.00
2018,05,21,12,05,17.00
2018,05,21,12,06,16.90
2018,05,21,12,07,16.90
2018,05,21,12,08,17.00
2018,05,21,12,09,17.00
2018,05,21,12,10,17.00
2018,05,21,12,11,17.10
2018,05,21,12,12,17.10
2018,05,21,12,13,17.10
2018,05,21,12,14,17.10
2018,05,21,12,15,17.10
2018,05,21,12,16,17.10
2018,05,21,12,17,17.10
2018,05,21,12,18,17.10
2018,05,21,12,19,17.00
2018,05,21,12,20,17.00
2018,05,21,12,21,17.00
2018,05,21,12,22,17.00
2018,05,21,12,23,17.00
2018,05,21,12,24,16.90
2018,05,21,12,25,16.90
2018,05,21,12,26,16.90
2018,05,21,12,27,17.00
2018,05,21,12,28,17.00
2018,05,21,12,29,17.10
2018,05,21,12,30,17.20
2018,05,21,12,31,17.20
2018,05,21,12,32,17.20
2018,05,21,12,33,17.20
2018,05,21,12,34,17.30
2018,05,21,12,35,17.20
2018,05,21,12,36,17.20
2018,05,21,12,37,17.20
2018,05,21,12,38,17.20
2018,05,21,12,39,17.20
2018,05,21,12,40,17.30
2018,05,21,12,41,17.30
2018,05,21,12,42,17.40
2018,05,21,12,43,17.50
2018,05,21,12,44,17.50
2018,05,21,12,45,17.60
2018,05,21,12,46,17.70
2018,05,21,12,47,17.70
2018,05,21,12,48,17.60
2018,05,21,12,49,17.60
2018,05,21,12,50,17.60
2018,05,21,12,51,17.50
2018,05,21,12,52,17.40
2018,05,21,12,53,17.40
2018,05,21,12,54,17.40
2018,05,21,12,55,17.40
2018,05,21,12,56,17.40
2018,05,21,12,57,17.40
2018,05,21,12,58,17.40
2018,05,21,12,59,17.40
2018,05,21,13,00,17.30
2018,05,21,13,01,17.30
2018,05,21,13,02,17.20
2018,05,21,13,03,17.30
2018,05,21,13,04,17.30
2018,05,21,13,05,17.30
2018,05,21,13,06,17.40
2018,05,21,13,07,17.40
2018,05,21,13,08,17.40
2018,05,21,13,09,17.50
2018,05,21,13,10,17.50
2018,05,21,13,11,17.50
2018,05,21,13,12,17.50
2018,05,21,13,13,17.40
2018,05,21,13,14,17.40
2018,05,21,13,15,17.30
2018,05,21,13,16,17.30
2018,05,21,13,17,17.30
2018,05,21,13,18,17.30
2018,05,21,13,19,17.40
2018,05,21,13,20,17.40
2018,05,21,13,21,17.50
2018,05,21,13,22,17.50
2018,05,21,13,23,17.60
2018,05,21,13,24,17.60
2018,05,21,13,25,17.70
2018,05,21,13,26,17.70
2018,05,21,13,27,17.70
2018,05,21,13,28,17.70
2018,05,21,13,29,17.70
2018,05,21,13,30,17.70
2018,05,21,13,31,17.70
2018,05,21,13,32,17.60
2018,05,21,13,33,17.60
2018,05,21,13,34,17.50
2018,05,21,13,35,17.50
2018,05,21,13,36,17.50
2018,05,21,13,37,17.50
2018,05,21,13,38,17.50
2018,05,21,13,39,17.50
2018,05,21,13,40,17.60
2018,05,21,13,41,17.70
2018,05,21,13,42,17.70
2018,05,21,13,43,17.70
2018,05,21,13,44,17.70
2018,05,21,13,45,17.70
2018,05,21,13,46,17.70
2018,05,21,13,47,17.80
2018,05,21,13,48,17.90
2018,05,21,13,49,17.90
2018,05,21,13,50,17.90
2018,05,21,13,51,18.00
2018,05,21,13,52,18.10
2018,05,21,13,53,18.10
2018,05,21,13,54,18.10
2018,05,21,13,55,18.10
2018,05,21,13,56,18.00
2018,05,21,13,57,17.90
2018,05,21,13,58,17.90
2018,05,21,13,59,17.80
2018,05,21,14,00,17.90
2018,05,21,14,01,17.90
2018,05,21,14,02,18.10
2018,05,21,14,03,18.20
2018,05,21,14,04,18.20
2018,05,21,14,05,18.20
2018,05,21,14,06,18.20
2018,05,21,14,07,18.20
2018,05,21,14,08,18.20
2018,05,21,14,09,18.30
2018,05,21,14,10,18.30
2018,05,21,14,11,18.20
2018,05,21,14,12,18.20
2018,05,21,14,13,18.20
2018,05,21,14,14,18.30
2018,05,21,14,15,18.30
2018,05,21,14,16,18.30
2018,05,21,14,17,18.30
2018,05,21,14,18,18.30
2018,05,21,14,19,18.30
2018,05,21,14,20,18.30
2018,05,21,14,21,18.30
2018,05,21,14,22,18.40
2018,05,21,14,23,18.40
2018,05,21,14,24,18.40
2018,05,21,14,25,18.40
2018,05,21,14,26,18.40
2018,05,21,14,27,18.40
2018,05,21,14,28,18.40
2018,05,21,14,29,18.50
2018,05,21,14,30,18.60
2018,05,21,14,31,18.60
2018,05,21,14,32,18.60
2018,05,21,14,33,18.60
2018,05,21,14,34,18.60
2018,05,21,14,35,18.60
2018,05,21,14,36,18.70
2018,05,21,14,37,18.80
2018,05,21,14,38,18.90
2018,05,21,14,39,19.00
2018,05,21,14,40,19.00
2018,05,21,14,41,19.00
2018,05,21,14,42,18.90
2018,05,21,14,43,18.90
2018,05,21,14,44,18.80
2018,05,21,14,45,18.80
2018,05,21,14,46,18.70
2018,05,21,14,47,18.80
2018,05,21,14,48,18.80
2018,05,21,14,49,18.80
2018,05,21,14,50,18.90
2018,05,21,14,51,18.90
2018,05,21,14,52,18.90
2018,05,21,14,53,18.90
2018,05,21,14,54,18.80
2018,05,21,14,55,18.80
2018,05,21,14,56,18.80
2018,05,21,14,57,18.80
2018,05,21,14,58,18.70
2018,05,21,14,59,18.70
2018,05,21,15,00,18.70
2018,05,21,15,01,18.60
2018,05,21,15,02,18.60
2018,05,21,15,03,18.60
2018,05,21,15,04,18.60
2018,05,21,15,05,18.60
2018,05,21,15,06,18.50
2018,05,21,15,07,18.50
2018,05,21,15,08,18.50
2018,05,21,15,09,18.50
2018,05,21,15,10,18.60
2018,05,21,15,11,18.70
2018,05,21,15,12,18.70
2018,05,21,15,13,18.70
2018,05,21,15,14,18.70
2018,05,21,15,15,18.70
2018,05,21,15,16,18.80
2018,05,21,15,17,18.80
2018,05,21,15,18,18.90
2018,05,21,15,19,19.00
2018,05,21,15,20,19.10
2018,05,21,15,21,19.20
2018,05,21,15,22,19.30
2018,05,21,15,23,19.30
2018,05,21,15,24,19.30
2018,05,21,15,25,19.30
2018,05,21,15,26,19.30
2018,05,21,15,27,19.30
2018,05,21,15,28,19.20
2018,05,21,15,29,19.20
2018,05,21,15,30,19.10
2018,05,21,15,31,19.10
2018,05,21,15,32,19.00
2018,05,21,15,33,19.00
2018,05,21,15,34,19.00
2018,05,21,15,35,19.10
2018,05,21,15,36,19.10
2018,05,21,15,37,19.10
2018,05,21,15,38,19.00
2018,05,21,15,39,19.10
2018,05,21,15,40,19.10
2018,05,21,15,41,19.10
2018,05,21,15,42,19.20
2018,05,21,15,43,19.30
2018,05,21,15,44,19.40
2018,05,21,15,45,19.40
2018,05,21,15,46,19.40
2018,05,21,15,47,19.50
2018,05,21,15,48,19.50
2018,05,21,15,49,19.50
2018,05,21,15,50,19.50
2018,05,21,15,51,19.50
2018,05,21,15,52,19.60
2018,05,21,15,53,19.60
2018,05,21,15,54,19.80
2018,05,21,15,55,19.90
2018,05,21,15,56,20.00
2018,05,21,15,57,20.10
2018,05,21,15,58,20.10
2018,05,21,15,59,20.00
2018,05,21,16,00,20.00
2018,05,21,16,01,19.90
2018,05,21,16,02,19.80
2018,05,21,16,03,19.80
2018,05,21,16,04,19.70
2018,05,21,16,05,19.60
2018,05,21,16,06,19.60
2018,05,21,16,07,19.50
2018,05,21,16,08,19.50
2018,05,21,16,09,19.50
2018,05,21,16,10,19.50
2018,05,21,16,11,19.50
2018,05,21,16,12,19.50
2018,05,21,16,13,19.50
2018,05,21,16,14,19.60
2018,05,21,16,15,19.70
2018,05,21,16,16,19.70
2018,05,21,16,17,19.80
2018,05,21,16,18,19.80
2018,05,21,16,19,19.80
2018,05,21,16,20,19.70
2018,05,21,16,21,19.70
2018,05,21,16,22,19.80
2018,05,21,16,23,19.80
2018,05,21,16,24,19.90
2018,05,21,16,25,19.90
2018,05,21,16,26,20.00
2018,05,21,16,27,20.00
2018,05,21,16,28,20.00
2018,05,21,16,29,20.00
2018,05,21,16,30,20.10
2018,05,21,16,31,20.10
2018,05,21,16,32,20.10
2018,05,21,16,33,20.20
2018,05,21,16,34,20.30
2018,05,21,16,35,20.30
2018,05,21,16,36,20.30
2018,05,21,16,37,20.30
2018,05,21,16,38,20.20
2018,05,21,16,39,20.20
2018,05,21,16,40,20.10
2018,05,21,16,41,20.10
2018,05,21,16,42,20.10
2018,05,21,16,43,20.10
2018,05,21,16,44,20.10
2018,05,21,16,45,20.10
2018,05,21,16,46,20.10
2018,05,21,16,47,20.10
2018,05,21,16,48,20.00
2018,05,21,16,49,19.90
2018,05,21,16,50,19.90
2018,05,21,16,51,19.90
2018,05,21,16,52,20.00
2018,05,21,16,53,20.00
2018,05,21,16,54,20.00
2018,05,21,16,55,20.10
2018,05,21,16,56,20.10
2018,05,21,16,57,20.10
2018,05,21,16,58,20.10
2018,05,21,16,59,20.10
2018,05,21,17,00,20.10
2018,05,21,17,01,20.10
2018,05,21,17,02,20.10
2018,05,21,17,03,20.00
2018,05,21,17,04,20.00
2018,05,21,17,05,19.90
2018,05,21,17,06,19.90
2018,05,21,17,07,19.90
2018,05,21,17,08,19.90
2018,05,21,17,09,19.90
2018,05,21,17,10,19.90
2018,05,21,17,11,19.90
2018,05,21,17,12,19.90
2018,05,21,17,13,20.00
2018,05,21,17,14,20.00
2018,05,21,17,15,20.10
2018,05,21,17,16,20.20
2018,05,21,17,17,20.30
2018,05,21,17,18,20.30
2018,05,21,17,19,20.30
2018,05,21,17,20,20.30
2018,05,21,17,21,20.30
2018,05,21,17,22,20.30
2018,05,21,17,23,20.30
2018,05,21,17,24,20.40
2018,05,21,17,25,20.40
2018,05,21,17,26,20.40
2018,05,21,17,27,20.40
2018,05,21,17,28,20.30
2018,05,21,17,29,20.30
2018,05,21,17,30,20.20
2018,05,21,17,31,20.20
2018,05,21,17,32,20.20